Regional Weather Roundup
Issued by NWS

Home | Current Version | Previous Version | Graphics & Text | Print | Product List | Glossary On
Versions: 1 2 3 4 5 6 7 8 9 10 11 12 13 14 15 16 17 18 19 20 21 22 23 24 25 26 27 28 29 30 31 32 33 34 35 36 37 38 39 40 41 42 43 44 45 46 47 48 49 50
000
ASUS43 KOAX 192202
RWRNE

WEATHER ROUNDUP FOR NEBRASKA
NATIONAL WEATHER SERVICE OMAHA NE
400 PM CST FRI JAN 19 2018

NOTES: SATELLITE DATA IS BEING USED TO AUGMENT CLOUD COVER ABOVE
       12000 FEET.
       "FAIR" INDICATES FEW OR NO CLOUDS BELOW 12,000 FEET WITH NO
       SIGNIFICANT WEATHER AND/OR OBSTRUCTIONS TO VISIBILITY.


NEZ001>004-019>022-054>056-192300-
NEBRASKA PANHANDLE

CITY           SKY/WX    TMP DP  RH WIND       PRES   REMARKS
SCOTTSBLUFF    CLOUDY    42  32  67 E3        29.66R
ALLIANCE       CLOUDY    42  32  67 N8        29.66S
CHADRON        CLOUDY    45  32  60 NE6       29.68S
GORDON         FAIR      42  32  68 CALM      29.68R
KIMBALL        CLOUDY    57  24  28 W8        29.69S
SIDNEY         CLOUDY    52  29  41 W6        29.68S
$$

NEZ057>060-069>072-079>082-192300-
SOUTHWEST NEBRASKA

CITY           SKY/WX    TMP DP  RH WIND       PRES   REMARKS
NORTH PLATTE   CLOUDY    50  33  52 W6        29.65R
IMPERIAL       CLOUDY    61  28  28 N8        29.66R
LEXINGTON      CLOUDY    50  37  60 S3        29.64R
MCCOOK         PTSUNNY   58  27  30 CALM      29.64S
OGALLALA       CLOUDY    46  32  58 CALM      29.66S
$$

NEZ005>010-023>029-035>040-094-192300-
NORTH CENTRAL NEBRASKA

CITY           SKY/WX    TMP DP  RH WIND       PRES   REMARKS
VALENTINE      CLOUDY    46  33  60 NW7       29.67R
AINSWORTH      CLOUDY    44  34  69 N12       29.66R
BROKEN BOW     CLOUDY    54  32  43 CALM      29.63R
O`NEILL        CLOUDY    47  37  68 NW10      29.64R
ORD            CLOUDY    59  32  36 NW6       29.63R
THEDFORD       CLOUDY    50  33  52 N6        29.66R
$$

NEZ041-046>049-061>064-073>077-083>087-192300-
SOUTH CENTRAL NEBRASKA

CITY           SKY/WX    TMP DP  RH WIND       PRES   REMARKS
GRAND ISLAND   CLOUDY    49  35  58 S7        29.65R
AURORA         CLOUDY    51  31  46 S12       29.64S
HASTINGS       CLOUDY    52  25  35 S6        29.65R
HEBRON         CLOUDY    48  30  49 S8        29.69R
HOLDREGE       CLOUDY    53  30  41 SW5       29.66R
KEARNEY        CLOUDY    46  36  68 S7        29.65
YORK           CLOUDY    48  30  49 S10       29.65S
$$

NEZ011>018-030>034-042>045-192300-
NORTHEAST NEBRASKA

CITY           SKY/WX    TMP DP  RH WIND       PRES   REMARKS
NORFOLK        CLOUDY    50  36  58 SW8       29.60R
ALBION         CLOUDY    52  36  54 CALM      29.63R
BLAIR          CLOUDY    47  32  56 S15       29.62F
COLUMBUS       CLOUDY    52  29  41 S10       29.63R
FREMONT        CLOUDY    51  26  38 S10       29.63S
TEKAMAH        CLOUDY    50  30  46 VRB7      29.63R
WAYNE          CLOUDY    53  35  49 S6        29.60R
$$

NEZ050>053-065>068-078-088>093-192300-
SOUTHEAST NEBRASKA

CITY           SKY/WX    TMP DP  RH WIND       PRES   REMARKS
LINCOLN        CLOUDY    48  30  49 S12       29.69R
OMAHA EPPLEY   CLOUDY    43  30  60 S14       29.67R
BEATRICE       CLOUDY    45  31  58 S12       29.69S
FALLS CITY     CLOUDY    48  27  44 S8G17     29.71S
NEBRASKA CITY  CLOUDY    44  32  63 S12       29.69S
PLATTSMOUTH    CLOUDY    42  31  66 S6        29.69R
$$

NEZ044-045-051>053-067-192300-
OMAHA AREA

CITY           SKY/WX    TMP DP  RH WIND       PRES   REMARKS
OMAHA EPPLEY   CLOUDY    43  30  60 S14       29.67R
BLAIR          CLOUDY    47  32  56 S15       29.62F
FREMONT        CLOUDY    51  26  38 S10       29.63S
MILLARD        CLOUDY    47  32  56 S8        29.67S
OFFUTT AFB     CLOUDY    41  30  64 SE8       29.68R
PLATTSMOUTH    CLOUDY    42  31  66 S6        29.69R
WAHOO          FAIR      50  26  38 S15       29.64F
$$



USA.gov is the U.S. government's official web portal to all federal, state and local government web resources and services.